This demonstration page uses our WeatherBlox Daily Observations layout. Learn more.

Left ArrowRight Arrow

44.8408, -93.29828

Hourly Observations for September 9, 2018

Temp ( °F °C ) Dew Point ( °F °C ) Humidity (%) Winds ( mph kmh ) Pressure ( in mb ) Visibility ( mi km ) Precip ( " mm )
12:53 am 00:53 Clear 59 15 52 11.1 78 78 SE 7 11 30.16 1021 10 16 0.00 0.00
1:53 am 01:53 Clear 58 14.4 53 11.7 84 84 SE 9 15 30.16 1021 10 16 0.00 0.00
2:53 am 02:53 Clear 58 14.4 53 11.7 84 84 SSE 10 17 30.16 1021 10 16 0.00 0.00
3:53 am 03:53 Clear 57 13.9 52 11.1 83 83 SE 9 15 30.15 1021 10 16 0.00 0.00
4:53 am 04:53 Clear 56 13.3 53 11.7 90 90 SE 8 13 30.15 1021 10 16 0.00 0.00
5:53 am 05:53 Clear 55 12.8 52 11.1 90 90 SE 7 11 30.14 1021 10 16 0.00 0.00
6:53 am 06:53 Sunny 55 12.8 52 11.1 90 90 SE 8 13 30.15 1021 7 11 0.00 0.00
7:53 am 07:53 Sunny 56 13.3 52 11.1 87 87 SE 6 9 30.16 1021 8 13 0.00 0.00
8:53 am 08:53 Mostly Sunny 58 14.4 53 11.7 84 84 SE 13 20 30.16 1021 10 16 0.00 0.00
9:53 am 09:53 Partly Cloudy 61 16.1 54 12.2 78 78 SE 12 19 30.15 1021 10 16 0.00 0.00
10:53 am 10:53 Partly Cloudy 65 18.3 55 12.8 70 70 S 7 11 30.14 1021 10 16 0.00 0.00
11:53 am 11:53 Partly Cloudy 68 20 54 12.2 61 61 SSE 10 17 30.12 1020 10 16 0.00 0.00
12:53 pm 12:53 Mostly Cloudy 70 21.1 53 11.7 55 55 SSE 12 19 30.09 1019 10 16 0.00 0.00
1:53 pm 13:53 Mostly Cloudy 71 21.7 53 11.7 53 53 SE 8 13 30.08 1019 10 16 0.00 0.00
2:53 pm 14:53 Mostly Cloudy 72 22.2 51 10.6 48 48 SSE 9 15 30.06 1018 10 16 0.00 0.00
3:53 pm 15:53 Mostly Cloudy 73 22.8 52 11.1 48 48 SE 9 15 30.04 1017 10 16 0.00 0.00
4:53 pm 16:53 Mostly Cloudy 72 22.2 52 11.1 50 50 SSE 13 20 30.03 1017 10 16 0.00 0.00
5:53 pm 17:53 Mostly Cloudy 72 22.2 52 11.1 50 50 SSE 8 13 30.02 1017 10 16 0.00 0.00
6:53 pm 18:53 Mostly Cloudy 69 20.6 53 11.7 57 57 SE 12 19 30.02 1017 10 16 0.00 0.00
7:53 pm 19:53 Mostly Cloudy 67 19.4 53 11.7 61 61 SE 9 15 30.02 1017 10 16 0.00 0.00
8:53 pm 20:53 Mostly Cloudy 64 17.8 51 10.6 63 63 SE 9 15 30.03 1017 10 16 0.00 0.00
9:53 pm 21:53 Partly Cloudy 63 17.2 47 8.3 56 56 SSE 8 13 30.03 1017 10 16 0.00 0.00
10:53 pm 22:53 Partly Cloudy 61 16.1 47 8.3 60 60 SSE 8 13 30.04 1017 10 16 0.00 0.00
11:53 pm 23:53 Clear 60 15.6 49 9.4 67 67 SSE 9 15 30.04 1017 10 16 0.00 0.00

Powered by AerisWeather